TimeEST,TemperatureF,Dew PointF,Humidity,Sea Level PressureIn,VisibilityMPH,Wind Direction,Wind SpeedMPH,Gust SpeedMPH,PrecipitationIn,Events,Conditions,WindDirDegrees,DateUTC
12:35 AM,41.0,39.2,93,30.02,5.0,ESE,6.9,-,N/A,,Overcast,120,2013-01-11 05:35:00
12:55 AM,39.2,37.4,93,30.00,5.0,ESE,10.4,-,N/A,,Overcast,110,2013-01-11 05:55:00
1:15 AM,41.0,37.4,87,29.97,7.0,ESE,9.2,-,N/A,,Overcast,110,2013-01-11 06:15:00
1:35 AM,41.0,39.2,93,29.95,10.0,ESE,11.5,20.7,N/A,,Overcast,120,2013-01-11 06:35:00
1:55 AM,41.0,39.2,93,29.94,7.0,ESE,9.2,16.1,N/A,,Overcast,110,2013-01-11 06:55:00
2:15 AM,42.8,41.0,93,29.92,10.0,ESE,10.4,-,N/A,,Mostly Cloudy,120,2013-01-11 07:15:00
2:35 AM,44.6,42.8,93,29.92,10.0,SE,10.4,-,N/A,,Drizzle,130,2013-01-11 07:35:00
2:55 AM,44.6,42.8,93,29.91,5.0,SE,9.2,-,0.02,Rain,Rain,130,2013-01-11 07:55:00
3:15 AM,44.6,42.8,93,29.89,4.0,SE,11.5,-,0.03,Rain,Rain,140,2013-01-11 08:15:00
3:35 AM,46.4,44.6,93,29.88,2.5,SE,17.3,-,0.11,Rain,Heavy Rain,140,2013-01-11 08:35:00
3:55 AM,46.4,44.6,93,29.87,4.0,SSE,18.4,25.3,0.20,Rain,Heavy Rain,160,2013-01-11 08:55:00
4:15 AM,46.4,46.4,100,29.86,3.0,SSE,17.3,-,0.06,Rain,Light Rain,160,2013-01-11 09:15:00
4:35 AM,46.4,46.4,100,29.86,7.0,SSE,15.0,20.7,0.08,Rain,Light Rain,160,2013-01-11 09:35:00
4:55 AM,48.2,46.4,93,29.86,7.0,SSE,18.4,24.2,0.09,Rain,Rain,160,2013-01-11 09:55:00
5:15 AM,50.0,46.4,87,29.83,10.0,SSE,18.4,24.2,N/A,Rain,Light Rain,150,2013-01-11 10:15:00
5:35 AM,48.2,46.4,93,29.81,7.0,SSE,13.8,-,N/A,Rain,Rain,150,2013-01-11 10:35:00
5:55 AM,50.0,48.2,94,29.79,10.0,SSE,13.8,-,0.02,Rain,Rain,150,2013-01-11 10:55:00
6:15 AM,50.0,50.0,100,29.75,10.0,SE,17.3,-,N/A,,Mostly Cloudy,140,2013-01-11 11:15:00
6:35 AM,50.0,48.2,94,29.78,10.0,SSE,19.6,24.2,N/A,,Scattered Clouds,160,2013-01-11 11:35:00
6:55 AM,50.0,50.0,100,29.77,10.0,SSE,15.0,-,N/A,,Clear,150,2013-01-11 11:55:00
7:15 AM,50.0,50.0,100,29.78,10.0,South,11.5,-,N/A,,Clear,170,2013-01-11 12:15:00
7:35 AM,50.0,48.2,94,29.80,10.0,South,15.0,19.6,N/A,,Scattered Clouds,180,2013-01-11 12:35:00
7:55 AM,50.0,50.0,100,29.80,10.0,South,15.0,19.6,N/A,,Overcast,180,2013-01-11 12:55:00
8:15 AM,50.0,50.0,100,29.81,10.0,South,16.1,20.7,N/A,,Overcast,180,2013-01-11 13:15:00
8:35 AM,50.0,50.0,100,29.83,7.0,SSW,15.0,-,N/A,,Overcast,200,2013-01-11 13:35:00
8:55 AM,50.0,50.0,100,29.83,5.0,SSW,13.8,20.7,N/A,,Overcast,200,2013-01-11 13:55:00
9:15 AM,51.8,50.0,94,29.83,7.0,SSW,12.7,-,N/A,,Overcast,200,2013-01-11 14:15:00
9:35 AM,51.8,50.0,94,29.84,10.0,SSW,13.8,-,N/A,,Overcast,200,2013-01-11 14:35:00
9:55 AM,51.8,50.0,94,29.84,10.0,SSW,11.5,-,N/A,,Overcast,210,2013-01-11 14:55:00
10:15 AM,51.8,51.8,100,29.84,10.0,SW,11.5,-,N/A,,Overcast,220,2013-01-11 15:15:00
10:35 AM,53.6,51.8,94,29.85,10.0,SW,15.0,18.4,N/A,,Overcast,220,2013-01-11 15:35:00
11:15 AM,55.4,50.0,82,29.86,10.0,WSW,19.6,24.2,N/A,,Mostly Cloudy,240,2013-01-11 16:15:00
11:35 AM,55.4,50.0,82,29.85,10.0,SW,16.1,25.3,N/A,,Overcast,230,2013-01-11 16:35:00
11:55 AM,55.4,50.0,82,29.85,10.0,SW,21.9,-,N/A,,Overcast,230,2013-01-11 16:55:00
12:15 PM,55.4,50.0,82,29.85,10.0,WSW,15.0,20.7,N/A,,Mostly Cloudy,240,2013-01-11 17:15:00
12:35 PM,53.6,46.4,77,29.84,10.0,WSW,15.0,26.5,N/A,,Mostly Cloudy,240,2013-01-11 17:35:00
12:55 PM,53.6,46.4,77,29.84,10.0,WSW,16.1,-,N/A,,Overcast,240,2013-01-11 17:55:00
1:15 PM,55.4,48.2,77,29.83,10.0,SW,16.1,20.7,N/A,,Overcast,230,2013-01-11 18:15:00
1:35 PM,53.6,46.4,77,29.84,10.0,SW,19.6,-,N/A,,Mostly Cloudy,230,2013-01-11 18:35:00
1:55 PM,53.6,46.4,77,29.84,10.0,SW,18.4,23.0,N/A,,Mostly Cloudy,220,2013-01-11 18:55:00
2:15 PM,53.6,46.4,77,29.85,10.0,SW,15.0,-,N/A,,Overcast,230,2013-01-11 19:15:00
2:35 PM,51.8,46.4,82,29.86,10.0,SW,15.0,-,N/A,,Overcast,220,2013-01-11 19:35:00
2:55 PM,53.6,46.4,77,29.86,10.0,SW,15.0,-,N/A,,Overcast,230,2013-01-11 19:55:00
3:15 PM,53.6,46.4,77,29.85,10.0,SW,16.1,-,N/A,,Mostly Cloudy,220,2013-01-11 20:15:00
3:35 PM,53.6,44.6,72,29.86,10.0,SW,13.8,18.4,N/A,,Scattered Clouds,220,2013-01-11 20:35:00
3:55 PM,53.6,46.4,77,29.86,10.0,SW,11.5,16.1,N/A,,Mostly Cloudy,220,2013-01-11 20:55:00
4:15 PM,53.6,46.4,77,29.86,10.0,SSW,9.2,-,N/A,,Overcast,210,2013-01-11 21:15:00
4:35 PM,53.6,46.4,77,29.86,10.0,SSW,8.1,-,N/A,,Mostly Cloudy,210,2013-01-11 21:35:00
4:55 PM,51.8,46.4,82,29.85,10.0,South,6.9,-,N/A,,Clear,170,2013-01-11 21:55:00
5:15 PM,50.0,46.4,87,29.85,10.0,South,6.9,-,N/A,,Clear,170,2013-01-11 22:15:00
5:35 PM,48.2,44.6,87,29.86,10.0,South,5.8,-,N/A,,Clear,170,2013-01-11 22:35:00
5:55 PM,48.2,44.6,87,29.86,10.0,South,9.2,-,N/A,,Clear,170,2013-01-11 22:55:00
6:15 PM,50.0,44.6,82,29.85,10.0,SSE,9.2,-,N/A,,Clear,160,2013-01-11 23:15:00
6:35 PM,50.0,44.6,82,29.86,10.0,South,10.4,-,N/A,,Clear,180,2013-01-11 23:35:00
6:55 PM,50.0,44.6,82,29.85,10.0,South,11.5,-,N/A,,Clear,170,2013-01-11 23:55:00
7:15 PM,48.2,44.6,87,29.86,10.0,South,9.2,-,N/A,,Clear,170,2013-01-12 00:15:00
7:35 PM,50.0,44.6,82,29.85,10.0,South,10.4,-,N/A,,Clear,180,2013-01-12 00:35:00
7:55 PM,50.0,44.6,82,29.85,10.0,South,11.5,-,N/A,,Clear,180,2013-01-12 00:55:00
8:15 PM,50.0,46.4,87,29.85,10.0,South,12.7,-,N/A,,Clear,180,2013-01-12 01:15:00
8:55 PM,50.0,46.4,87,29.85,10.0,South,13.8,-,N/A,,Clear,190,2013-01-12 01:55:00
9:15 PM,48.2,46.4,93,29.85,10.0,South,12.7,-,N/A,,Clear,190,2013-01-12 02:15:00
9:35 PM,50.0,46.4,87,29.85,10.0,South,12.7,-,N/A,,Clear,190,2013-01-12 02:35:00
9:55 PM,48.2,46.4,93,29.85,10.0,SSW,11.5,-,N/A,,Clear,200,2013-01-12 02:55:00
10:15 PM,50.0,46.4,87,29.85,10.0,SSW,11.5,-,N/A,,Clear,200,2013-01-12 03:15:00
10:35 PM,48.2,44.6,87,29.86,10.0,SSW,10.4,-,N/A,,Clear,200,2013-01-12 03:35:00
10:55 PM,48.2,44.6,87,29.85,10.0,South,10.4,-,N/A,,Clear,190,2013-01-12 03:55:00
11:15 PM,46.4,44.6,93,29.85,10.0,South,10.4,-,N/A,,Clear,190,2013-01-12 04:15:00
11:35 PM,48.2,44.6,87,29.84,10.0,SSW,12.7,-,N/A,,Clear,200,2013-01-12 04:35:00
11:55 PM,50.0,44.6,82,29.84,10.0,SSW,16.1,-,N/A,,Clear,200,2013-01-12 04:55:00